Location: Alsip
(41.6689°N, 87.7387°W)
Time: 15:22:49
(UTC+00:00)

Cosmos 1624 Rocket - Pass Details

Date: 14 July 2020
Orbit: 758 x 783 km, 74.0° (Epoch: 13 August)

Event Time Altitude Azimuth Distance (km) Brightness Sun altitude
Rises 03:23:43 0° 341° (NNW) 3,234 8.6 -17.5°
Reaches altitude 10° 03:26:07 10° 343° (NNW) 2,302 7.6 -17.7°
Maximum altitude 03:31:20 78° 70° (ENE) 780 3.9 -18.3°
Enters shadow 03:33:33 35° 151° (SSE) 1,208 4.5 -18.6°
